FW7721 Weather Reports


time (UTC)temp
C
wind
direction
speed
KPH
gust
KPH
rain 1hr
cm
rain 24hr
cm
rain mn
cm
humidity
%
barometer
mb
20260505041518 7 221 12.9 20.9 0.00 0.30 0.00 84 1007.8
20260505040015 7 205 11.3 25.7 0.00 0.30 0.00 83 1007.5
20260505034511 7 229 11.3 19.3 0.00 0.33 0.00 83 1007.3
20260505033117 7 213 12.9 19.3 0.00 0.33 0.00 83 1007.1
20260505031508 7 209 12.9 25.7 0.00 0.33 0.00 83 1006.9
20260505030004 7 195 11.3 22.5 0.00 0.38 0.33 81 1006.7
20260505024504 8 247 11.3 22.5 0.00 0.38 0.33 82 1006.6
20260505023002 7 188 8.0 19.3 0.00 0.38 0.33 82 1006.4
20260505021600 8 234 11.3 22.5 0.00 0.38 0.33 81 1006.3
20260505020057 8 229 9.7 22.5 0.00 0.38 0.33 81 1006.1
20260505014556 8 241 14.5 29.0 0.00 0.43 0.33 81 1006.0
20260505013154 8 219 11.3 24.1 0.00 0.43 0.33 80 1005.8
20260505011559 8 207 6.4 17.7 0.00 0.43 0.33 79 1005.8
20260505010057 8 215 11.3 22.5 0.00 0.43 0.33 78 1005.7
20260505004555 8 226 9.7 20.9 0.00 0.46 0.33 77 1005.8
20260505003050 8 192 8.0 22.5 0.00 0.46 0.33 76 1005.7
20260505001548 9 223 8.0 16.1 0.00 0.46 0.33 73 1005.4
20260505000048 10 204 8.0 24.1 0.00 0.46 0.33 69 1005.1
20260504234610 10 234 9.7 19.3 0.00 0.64 0.33 67 1004.8
20260504233046 11 228 8.0 19.3 0.00 0.64 0.33 65 1005.0
20260504231551 11 234 9.7 24.1 0.00 0.64 0.33 63 1004.5
20260504230039 11 225 8.0 20.9 0.00 0.64 0.33 62 1004.2
20260504224536 11 225 9.7 22.5 0.00 0.97 0.33 62 1004.1
20260504223036 11 219 12.9 29.0 0.00 0.97 0.33 60 1003.9
20260504221533 12 223 12.9 24.1 0.00 0.97 0.33 58 1003.7
20260504220030 12 218 9.7 22.5 0.00 0.97 0.33 56 1003.4
20260504214537 13 215 14.5 27.4 0.00 1.32 0.33 53 1003.4
20260504213031 14 236 12.9 27.4 0.00 1.32 0.33 44 1003.0
20260504211527 14 269 12.9 37.0 0.00 1.32 0.33 43 1003.0
20260504210025 15 311 14.5 35.4 0.00 1.32 0.33 42 1002.8
20260504204550 14 321 12.9 35.4 0.00 1.85 0.33 41 1002.8
20260504203027 14 255 20.9 40.2 0.00 1.85 0.33 42 1002.4
20260504201520 14 302 19.3 48.3 0.00 1.85 0.33 43 1002.3
20260504200020 14 257 29.0 54.7 0.00 1.85 0.33 41 1002.1
20260504194518 13 301 25.7 48.3 0.00 2.21 0.33 41 1001.7
20260504193021 13 275 19.3 41.8 0.00 2.21 0.33 45 1001.8
20260504191511 13 223 17.7 46.7 0.00 2.21 0.33 47 1001.5
20260504190010 13 292 16.1 46.7 0.00 2.39 0.33 51 1001.5
20260504184507 13 275 22.5 41.8 0.00 2.39 0.33 53 1001.4
20260504183005 13 252 25.7 46.7 0.00 2.39 0.33 52 1001.2
20260504181504 12 236 20.9 48.3 0.00 2.39 0.33 53 1001.1
20260504180001 12 245 20.9 41.8 0.00 2.39 0.33 57 1000.9
20260504174600 12 295 17.7 43.5 0.00 2.39 0.33 57 1000.7
20260504173057 12 304 22.5 46.7 0.00 2.39 0.33 57 1000.5
20260504171557 12 233 17.7 46.7 0.00 2.39 0.33 61 1000.4
20260504081524 2 246 19.3 48.3 0.03 2.18 0.13 96 985.8
20260504070105 2 238 22.5 38.6 0.00 2.13 0.08 97 982.5
20260504044537 4 227 17.7 32.2 0.03 2.11 0.05 99 978.0
20260504043025 4 226 14.5 33.8 0.00 2.08 0.03 99 977.4